This is the latest recevied weather packets stored in our database for station/object KD4MBW. If no packets are shown the sender has not sent any weather packets the latest 10 day(s).
| Time | Temp. | Humidity | Pressure | Rain* | Wind** | Luminosity | Snow |
|---|---|---|---|---|---|---|---|
| 1777762857 | 21.67° C | 64% | 1012.7 hPa | 0 mm | - | 88 W/m² | - |
| 1777762552 | 21.67° C | 63% | 1012.8 hPa | 0 mm | - | 113 W/m² | - |
| 1777762250 | 21.67° C | 64% | 1012.6 hPa | 0 mm | - | 130 W/m² | - |
| 1777761946 | 21.67° C | 66% | 1012.8 hPa | 0 mm | - | 59 W/m² | - |
| 1777761643 | 22.22° C | 63% | 1012.7 hPa | 0 mm | - | 82 W/m² | - |
| 1777761341 | 22.22° C | 63% | 1012.7 hPa | 0 mm | - | 208 W/m² | - |
| 1777761039 | 22.22° C | 63% | 1012.6 hPa | 0 mm | - | 233 W/m² | - |
| 1777760736 | 21.67° C | 65% | 1012.5 hPa | 0 mm | - | 236 W/m² | - |
| 1777760432 | 21.67° C | 64% | 1012.4 hPa | 0 mm | - | 92 W/m² | - |
| 1777760128 | 22.22° C | 64% | 1012.5 hPa | 0 mm | - | 240 W/m² | - |
| 1777759826 | 22.78° C | 64% | 1012.4 hPa | 0 mm | - | 295 W/m² | - |
| 1777759521 | 22.22° C | 64% | 1012.4 hPa | 0 mm | - | 333 W/m² | - |
| 1777759218 | 22.22° C | 65% | 1012.3 hPa | 0 mm | - | 363 W/m² | - |
| 1777758915 | 22.22° C | 64% | 1012.4 hPa | 0 mm | - | 393 W/m² | - |
| 1777758612 | 21.67° C | 64% | 1012.5 hPa | 0 mm | - | 360 W/m² | - |
| 1777758309 | 21.67° C | 65% | 1012.4 hPa | 0 mm | - | 392 W/m² | - |
| 1777758007 | 21.67° C | 66% | 1012.3 hPa | 0 mm | - | 408 W/m² | - |
| 1777757703 | 21.11° C | 66% | 1012.1 hPa | 0 mm | - | 406 W/m² | - |
| 1777757401 | 21.11° C | 66% | 1012.4 hPa | 0 mm | - | 424 W/m² | - |
| 1777757099 | 21.67° C | 65% | 1012 hPa | 0 mm | - | 457 W/m² | - |
| 1777756796 | 21.67° C | 65% | 1012.1 hPa | 0 mm | - | 461 W/m² | - |
| 1777756492 | 21.11° C | 67% | 1012.3 hPa | 0 mm | - | 503 W/m² | - |
| 1777756190 | 21.11° C | 67% | 1012.1 hPa | 0 mm | - | 342 W/m² | - |
| 1777755886 | 20.56° C | 67% | 1012.1 hPa | 0 mm | - | 499 W/m² | - |
| 1777755584 | 20.56° C | 69% | 1012.4 hPa | 0 mm | - | 544 W/m² | - |
* Rain latest hour (hover to see other rain measurements)
** Current wind speed in m/s (hover to see current wind gust speed)